Regional Weather Roundup
Issued by NWS Charleston, SC

Home | Current Version | Previous Version | Text Only | Print | Product List | Glossary On
Versions: 1 2 3 4 5 6 7 8 9 10 11 12 13 14 15 16 17 18 19 20 21 22 23 24 25 26 27 28 29 30 31 32 33 34 35 36 37 38 39 40 41 42 43 44 45 46 47 48 49 50
000
ASUS42 KCHS 061227
RWRCHS

REGIONAL WEATHER ROUNDUP
NATIONAL WEATHER SERVICE CHARLESTON SC
800 AM EDT MON JUL 06 2015

NOTE: "FAIR" INDICATES FEW OR NO CLOUDS BELOW 12,000 FEET WITH NO
SIGNIFICANT WEATHER AND/OR OBSTRUCTIONS TO VISIBILITY.

NOT ALL STATIONS ARE QUALITY CONTROLLED BY THE NATIONAL
WEATHER SERVICE. USE DATA WITH CAUTION...ESPECIALLY
DEWPOINT OBSERVATIONS.

SCZ027-030-031-034>040-042>050-061300-
...SOUTHEAST SOUTH CAROLINA...

CITY           SKY/WX    TMP DP  RH WIND       PRES   REMARKS
N CHARLESTON   PTSUNNY   72  69  90 W6        30.15R
6HR MIN TEMP:  71; 6HR MAX TEMP:  74;

WATERFRONT PAR   N/A     75  71  87 W5        30.11R
MOUNT PLEASANT LGT RAIN  77  70  78 SW3       30.15R
JOHNS ISLAND   FAIR      77  72  83 W7        30.16R
PINOPOLIS      NOT AVBL
MONCKS CORNER  CLOUDY    72  70  94 CALM      30.16R FOG
SUMMERVILLE    CLOUDY    72  72 100 SW3       30.17R FOG
BEAUFORT MCAS  CLOUDY    71  70  96 NW6       30.16R
6HR MIN TEMP:  70; 6HR MAX TEMP:  71;

BEAUFORT ARPT  CLOUDY    72  72 100 CALM      30.16R FOG
HILTON HEAD IS CLOUDY    72  72 100 W5        30.17R
WALTERBORO     CLOUDY    70  70 100 W6        30.17R
ALLENDALE      CLOUDY    73  72  94 CALM      30.15R

...SOUTHERN MIDLANDS AND PEE DEE...

CITY           SKY/WX    TMP DP  RH WIND       PRES   REMARKS
GEORGETOWN     NOT AVBL
KINGSTREE      NOT AVBL
ORANGEBURG     CLOUDY    72  70  93 SW6       30.15R FOG
6HR MIN TEMP:  70; 6HR MAX TEMP:  72;

BARNWELL       CLOUDY    73  73 100 SW5       30.17R
AIKEN          NOT AVBL
MANNING        CLOUDY    70  70 100 SW6       30.15R
COLUMBIA       CLOUDY    74  70  87 SW5       30.13R
6HR MIN TEMP:  72; 6HR MAX TEMP:  74;

SUMTER         CLOUDY    73  70  92 SW7       30.13R FOG
6HR MIN TEMP:  71; 6HR MAX TEMP:  73;

FLORENCE       CLOUDY    73  70  90 SW8       30.14R
6HR MIN TEMP:  72; 6HR MAX TEMP:  74;

MYRTLE BEACH   MOSUNNY   77  70  78 SW6       30.16R
N MYRTLE BEACH SUNNY     78  71  79 W3        30.14R
6HR MIN TEMP:  75; 6HR MAX TEMP:  80;


$$

GAZ063-065-086>088-099>101-113>116-118-119-134>141-150-061300-
...SOUTHEAST GEORGIA...

CITY           SKY/WX    TMP DP  RH WIND       PRES   REMARKS
SAVANNAH ARPT  CLOUDY    71  69  93 SW6       30.16S
6HR MIN TEMP:  70; 6HR MAX TEMP:  71;

HUNTER AAF     CLOUDY    71  71 100 W3        30.14R
6HR MIN TEMP:  70; 6HR MAX TEMP:  71; 6HR PCP:  0.01;

FORT STEWART   MOSUNNY   73  68  83 W3        30.14S
6HR MIN TEMP:  71; 6HR MAX TEMP:  73;

STATESBORO     NOT AVBL
SYLVANIA       PTSUNNY   75  74  96 W5        30.18R
CLAXTON        PTSUNNY   73  72  94 W3        30.17R

...CSRA...CENTRAL AND FAR SOUTHEAST GEORGIA...

CITY           SKY/WX    TMP DP  RH WIND       PRES   REMARKS
THOMSON        CLOUDY    74  74 100 SW3       30.20R
AUGUSTA-BUSH   CLOUDY    73  71  93 SW5       30.14R
6HR MIN TEMP:  71; 6HR MAX TEMP:  73; 6HR PCP: TRACE;

AUGUSTA-DANIEL CLOUDY    73  70  90 SW7       30.16R
SWAINSBORO     CLOUDY   N/A N/A N/A CALM      30.18R
VIDALIA        PTSUNNY   73  70  88 CALM      30.17R
EASTMAN        PTSUNNY   73  72  97 W6        30.20R
HAZLEHURST     FAIR      75  74  95 CALM      30.17R
ALMA           CLOUDY    71  69  93 CALM      30.17R
6HR MIN TEMP:  70; 6HR MAX TEMP:  72;

WAYCROSS       CLOUDY    73  73  98 CALM      30.17R
JESUP          CLOUDY    73  72  94 W5        30.18R
BAXLEY         CLOUDY    73  70  88 CALM      30.17R
BRUNSWICK      CLOUDY    68  68 100 CALM      30.18R
SAINT SIMONS   SUNNY     71  69  93 W5        30.16R
6HR MIN TEMP:  70; 6HR MAX TEMP:  72;


$$

SCZ027-028-034-036>038-045-046-048>050-GAZ119-141-061300-
...LAKE AND SUPPLEMENTAL COASTAL OBSERVATIONS...

STATION/POSITION TIME  TEMP    WIND        PRES    WAVE   SWELL
                       AIR SEA DIR/SP/G            HT/PER HT/PER/DIR
                 (UTC) (F)     (DEG/KT/KT) (MB)    (FT/S) (FT/S/D)
UPR LAKE MARION  NOT AVBL
WINYAH BAY       1100   74     260/  1     1019.0
LAKE MURRAY      1100   75     240/  5/  7 1019.0R
ACE BASIN NERRS  NOT AVBL
FORT PULASKI     1200   71 83  250/  8/ 10 1022.0R
SAPELO ISLAND    1200   72     320/  5     1021.0S

$$

ANZ835-935-AMZ111-154-330-350-352-354-370-450-454-472-061300-
...C-MAN AND BUOY OBSERVATIONS...

STATION/POSITION TIME  TEMP    WIND        PRES    WAVE   SWELL
                       AIR SEA DIR/SP/G            HT/PER HT/PER/DIR
                 (UTC) (F)     (DEG/KT/KT) (MB)    (FT/S) (FT/S/D)
BUOY 41004       1150   80 81  220/ 10/ 10 1020.4R   3/ 9   2/ 9
BUOY 41008       1150   74 79  300/  8/ 12 1021.3R   2/ 8   2/120/ 8
FOLLY BEACH CMAN 1200   76     260/  4/  7 1020.9R
CAPERS NEARSHORE 1108   78     270/  8/ 12 1020.3R
FRIPP NEARSHORE  1100   76     270/ 10/ 10 1020.2R


STATION/POSITION TIME  TEMP    WIND        PRES    WAVE   SWELL
                       AIR SEA DIR/SP/G            HT/PER HT/PER/DIR
                 (UTC) (F)     (DEG/KT/KT) (MB)    (FT/S) (FT/S/D)
5E ST. MARYS GA  1121      76                N/A     2/ 8
FRYING PAN BUOY  1150   76 79  190/  6/  8 1021.3R   3/ 5   3/200/ 5
BUOY 41025       1150   80 81  220/  8/ 10 1021.3R   3/ 5   2/190/ 5
CAPE LOOKOUT NC  1200   80     240/ 10/ 13 1020.7R
BUOY 41002       1150   81 80  210/ 10/ 12 1022.6R   3/ 8   3/130/ 8
BUOY 41010       1120   83 83  260/  6/  8 1021.0R
ST AUGUSTINE FL  1200   72 70   60/  1/  1 1021.9R


$$


USA.gov is the U.S. government's official web portal to all federal, state and local government web resources and services.